Montego Bay, Jamaica

10:04 AM EST on November 19, 2017 (GMT -0500)
Sangster International

Weather History for MKJS - March, 2013

Change the Weather History Date:

Thursday, March 7, 2013

  Actual Average Record
Temperature  
Mean Temperature 78 °F -  
Max Temperature 84 °F 83 °F 89 °F (2003)
Min Temperature 72 °F 73 °F 71 °F (2007)
Cooling Degree Days 13    
Growing Degree Days 28 (Base 50)    
Moisture  
Dew Point 68 °F    
Average Humidity 71    
Maximum Humidity 89    
Minimum Humidity 54    
Precipitation  
Precipitation 0.00 in - - ()
Sea Level Pressure  
Sea Level Pressure 30.02 in    
Wind  
Wind Speed 9 mph ()    
Max Wind Speed 14 mph    
Max Gust Speed -    
Visibility 8.2 miles    
Events      
Averages and records for this station are not official NWS values.
T = Trace of Precipitation, MM = Missing Value Source: Averaged Metar Reports

Daily Weather History Graph

Daily Weather History Graph

Search for Another Location

Airport or City:

Trip Planner

Search our weather history database for the weather conditions in past years. The results will help you decide how hot, cold, wet, or windy it might be!

Date:

Astronomy

Mar. 07, 2013 Rise Set
Actual Time 6:25 AM EST 6:19 PM EST
Civil Twilight 6:04 AM EST 6:41 PM EST
Nautical Twilight 5:38 AM EST 7:06 PM EST
Astronomical Twilight 5:13 AM EST 7:31 PM EST
Moon 2:54 AM EST (3/7) 2:32 PM EST (3/7)
Length of Visible Light 12h 37m
Length of Day
11h 53m
Waning Crescent, 20% of the Moon is Illuminated
Mar 7
Waning Crescent
Mar 11
New
Mar 19
First Quarter
Mar 27
Full
Apr 2
Last Quarter

Hourly Weather History & Observations

Time (EST) Temp. Heat Index Dew Point Humidity Pressure Visibility Wind Dir Wind Speed Gust Speed Precip Events Conditions
12:00 AM 75.2 °F - 71.6 °F 89% 30.04 in 6.2 mi NNW 13.8 mph - N/A   Scattered Clouds
1:00 AM 73 °F - 69 °F 84% 30.03 in 12 mi SSE 3.5 mph - -   Haze
1:00 AM 73.4 °F - 69.8 °F 88% 30.01 in 6.2 mi SSE 3.5 mph - N/A   Mostly Cloudy
2:00 AM 73.4 °F - 69.8 °F 88% 30.01 in 6.2 mi NE 3.5 mph - N/A   Mostly Cloudy
3:00 AM 75.2 °F - 66.2 °F 73% 3.10 in 6.2 mi NNE 13.8 mph - N/A   Scattered Clouds
4:00 AM 76 °F - 66 °F 63% 29.99 in 12 mi NNE 10.4 mph - -   Scattered Clouds
4:00 AM 75.2 °F - 66.2 °F 73% 29.98 in 6.2 mi NNE 10.4 mph - N/A   Partly Cloudy
5:00 AM 75.2 °F - 64.4 °F 69% 29.98 in 6.2 mi NNE 11.5 mph - N/A   Partly Cloudy
6:00 AM 75.2 °F - 66.2 °F 73% 30.01 in 6.2 mi NNE 12.7 mph - N/A   Partly Cloudy
7:00 AM 75 °F - 66 °F 67% 30.04 in 16 mi NE 13.8 mph - -   Haze
7:00 AM - - - N/A% - - NE 13.8 mph - N/A   Unknown
8:00 AM 77.0 °F - 68.0 °F 74% 30.04 in 6.2 mi NNE 13.8 mph - N/A   Scattered Clouds
9:00 AM 78.8 °F - 69.8 °F 74% 30.06 in 6.2 mi NNE 11.5 mph - N/A   Partly Cloudy
10:00 AM 81 °F - 69 °F 59% 30.08 in 16 mi NE 11.5 mph - -   Scattered Clouds
10:00 AM 80.6 °F 83.9 °F 69.8 °F 70% 30.06 in 6.2 mi NE 11.5 mph - N/A   Partly Cloudy
11:00 AM 80.6 °F 83.2 °F 68.0 °F 65% 30.06 in 6.2 mi NNE 12.7 mph - N/A   Partly Cloudy
12:00 PM 80.6 °F 83.2 °F 68.0 °F 65% 30.04 in 6.2 mi NNE 13.8 mph - N/A   Partly Cloudy
1:00 PM 81 °F - 67 °F 54% 30.03 in 16 mi NE 13.8 mph - -   Mostly Cloudy
1:00 PM 80.6 °F 83.2 °F 68.0 °F 65% 30.01 in 6.2 mi NE 13.8 mph - N/A   Mostly Cloudy
2:00 PM 80.6 °F 83.2 °F 68.0 °F 65% 29.89 in 6.2 mi NE 12.7 mph - N/A   Mostly Cloudy
3:00 PM 78.8 °F - 66.2 °F 65% 30.01 in 6.2 mi NE 13.8 mph - N/A   Scattered Clouds
4:00 PM 78 °F - 66 °F 59% 30.01 in 16 mi ENE 12.7 mph - -   Mostly Cloudy
4:00 PM 78.8 °F - 66.2 °F 65% 30.01 in 6.2 mi ENE 12.7 mph - N/A   Mostly Cloudy
5:00 PM 78.8 °F - 68.0 °F 69% 30.01 in 6.2 mi ENE 9.2 mph - N/A   Mostly Cloudy
6:00 PM 77.0 °F - 66.2 °F 69% 30.01 in 6.2 mi East 6.9 mph - N/A   Mostly Cloudy
7:00 PM 77 °F - 67 °F 63% 30.04 in 12 mi East 9.2 mph - -   Mostly Cloudy
7:00 PM 77.0 °F - 66.2 °F 69% 30.04 in 6.2 mi East 9.2 mph - N/A   Mostly Cloudy
8:00 PM 77.0 °F - 68.0 °F 74% 30.04 in 6.2 mi ESE 4.6 mph - N/A   Scattered Clouds
9:00 PM 75.2 °F - 68.0 °F 78% 30.04 in 6.2 mi ESE 5.8 mph - N/A   Scattered Clouds
10:00 PM 75 °F - 67 °F 70% 30.06 in 12 mi ENE 4.6 mph - -   Partly Cloudy
10:00 PM 75.2 °F - 68.0 °F 78% 30.06 in 6.2 mi ENE 4.6 mph - N/A   Partly Cloudy
11:00 PM 75.2 °F - 68.0 °F 78% 30.06 in 6.2 mi ENE 2.3 mph - N/A   Partly Cloudy